Location: Unspecified
(0.0000°N, 0.0000°E)
Time: 11:26:12
(UTC+00:00)

Courier 1B - Pass Details

Date: 23 November 2019
Orbit: 963 x 1209 km, 28.3° (Epoch: 07 December)

Event Time Altitude Azimuth Distance (km) Brightness Sun altitude
Rises 00:31:45 0° 244° (WSW) 4,109 - -66.9°
Reaches altitude 10° 00:34:38 10° 245° (WSW) 3,141 - -66.5°
Maximum altitude 00:42:29 74° 329° (NNW) 1,227 - -65.5°
Drops below altitude 10° 00:50:03 10° 54° (NE) 3,032 - -64.4°
Sets 00:52:47 0° 56° (NE) 3,959 - -64.0°
